Tracking 30298 objects as of 27-Apr-2025
HD Live streaming from Space Station
objects crossing your sky now

STARLINK-30159

Track STARLINK-30159 now!
10-day predictions
STARLINK-30159 is classified as:


NORAD ID: 57440
Int'l Code: 2023-105L
Perigee: 564.7 km
Apogee: 567.8 km
Inclination: 43.0 °
Period: 95.8 minutes
Semi major axis: 6937 km
RCS: Unknown
Launch date: July 24, 2023
Source: United States (US)
Launch site: AIR FORCE EASTERN TEST RANGE (AFETR)
Your satellite tracking list
Your tracking list is empty




NASA's NSSDC Master Catalog

Two Line Element Set (TLE):
1 57440U 23105L   25116.48775069 -.00001340  00000-0 -84125-4 0  9996
2 57440  43.0052 185.3639 0002288 285.0746  74.9843 15.02523019 97686
Source of the keplerian elements: AFSPC